Location: *
(32.8140°S, 174.6161°E)
Time: 11:33:38
(UTC+00:00)

Cosmos 1805 Rocket - Pass Details

Date: 10 December 2019
Orbit: 606 x 629 km, 82.5° (Epoch: 24 January)

Event Time Altitude Azimuth Distance (km) Brightness Sun altitude
Rises 15:27:48 0° 195° (SSW) 2,905 7.4 -17.6°
Reaches altitude 10° 15:30:07 10° 202° (SSW) 1,989 6.4 -17.3°
Maximum altitude 15:34:16 42° 272° (W) 880 4.0 -16.6°
Enters shadow 15:35:46 31° 318° (NW) 1,086 4.2 -16.4°
